Погода в Пату-Бранку

Бразилия     26°13′37″S   52°40′45″W
темп.,
°C
ветер,
м/с
пор.,
м/с
влажн.,
%
обл.,
%
осадки,
мм/ч
давл.,
гПа
погр.,
м
26 февраля, пт
пт2600:00+17в413960 0.0 1012483
03:00+16всв311930 0.0 1012353
06:00+15всв310950 0.0 1012330
09:00+20св38740 0.0 1014505
12:00+26св24550 0.0 10131206
15:00+29зсз13536 0.0 10101892
18:00+24ю248124 0.2 1009133
21:00+19юв238819 0.3 101364
27 февраля, сб
сб2700:00+17всв311873 0.0 1014360
03:00+16всв211861 0.0 1014369
06:00+14в13940 0.0 101582
09:00+20всв37720 0.0 1016595
12:00+26в24570 0.0 10151143
15:00+28ю34547 0.0 10121792
18:00+24ююв387714 0.1 1011384
21:00+19вюв412817 0.3 1014658
28 февраля, вс
вс2800:00+17в313820 0.0 1015813
03:00+16в212860 0.0 1013688
06:00+16юв22880 0.0 101451
09:00+22в38730 0.0 1014801
12:00+26св35610 0.1 10131316
15:00+25ююз11809 2.3 1010684
18:00+22ююв25934 2.9 1009239
21:00+18юв36962 3.1 1011157
1 марта, пн
пн100:00+18в312960 0.0 1011371
03:00+18св312960 0.0 1010492
06:00+17св311960 0.0 1011414
09:00+22ссв49810 0.0 1012698
12:00+26с466710 0.1 10101155
15:00+26ссз237521 1.4 10081088
18:00+24ю119261 5.1 100773
21:00+19юв129437 7.8 101025
2 марта, вт
вт200:00+18св22970 0.0 101162
03:00+18ссв27980 0.0 1010223
06:00+17ссв269911 0.0 1011195
09:00+21с38939 0.3 1013534
12:00+25с367925 1.4 1011806
15:00+25ссз348831 3.9 1009739
18:00+23ссв1194100 7.3 100840
21:00+20св119582 8.6 101123